Regional Weather Roundup
Issued by NWS

Home | Current Version | Previous Version | Graphics & Text | Print | Product List | Glossary On
Versions: 1 2 3 4 5 6 7 8 9 10 11 12 13 14 15 16 17 18 19 20 21 22 23 24 25 26 27 28 29 30 31 32 33 34 35 36 37 38 39 40 41 42 43 44 45 46 47 48 49 50
000
ASUS43 KOAX 051602
RWRNE

WEATHER ROUNDUP FOR NEBRASKA
NATIONAL WEATHER SERVICE OMAHA NE
1100 AM CDT TUE MAY 05 2015

NOTES: SATELLITE DATA IS BEING USED TO AUGMENT CLOUD COVER ABOVE
       12000 FEET.
       "FAIR" INDICATES FEW OR NO CLOUDS BELOW 12,000 FEET WITH NO
       SIGNIFICANT WEATHER AND/OR OBSTRUCTIONS TO VISIBILITY.

  * THESE STATIONS DO NOT REPORT WEATHER SUCH AS RAIN...SNOW OR FOG.

NEZ001>004-019>022-054>056-051700-
NEBRASKA PANHANDLE

CITY           SKY/WX    TMP DP  RH WIND       PRES   REMARKS
SCOTTSBLUFF    CLOUDY    55  46  71 SE6       29.98F
ALLIANCE       CLOUDY    55  48  77 S9        29.99S
CHADRON        CLOUDY    55  47  74 SE9       29.98F
SIDNEY         CLOUDY    50  46  86 SE6       30.01S
$$

NEZ057>060-069>072-079>082-051700-
SOUTHWEST NEBRASKA

CITY           SKY/WX    TMP DP  RH WIND       PRES   REMARKS
NORTH PLATTE   CLOUDY    55  54  96 E10       30.02F
IMPERIAL       CLOUDY    53  51  93 E7        30.00F
MCCOOK         CLOUDY    58  56  93 E7        29.99F FOG
$$

NEZ005>010-023>029-035>040-094-051700-
NORTH CENTRAL NEBRASKA

CITY           SKY/WX    TMP DP  RH WIND       PRES   REMARKS
VALENTINE      CLOUDY    53  51  93 E8        30.03F FOG
BROKEN BOW     CLOUDY    58  56  93 E8        30.03F FOG
ORD            LGT RAIN  58  56  93 E8        30.04F FOG
$$

NEZ041-046>049-061>064-073>077-083>087-051700-
SOUTH CENTRAL NEBRASKA

CITY           SKY/WX    TMP DP  RH WIND       PRES   REMARKS
GRAND ISLAND   CLOUDY    61  59  93 E8        30.06S FOG
HASTINGS       CLOUDY    64  59  83 SE10      30.04S
KEARNEY *      CLOUDY    63  57  82 E12       30.04S
$$

NEZ011>018-030>034-042>045-051700-
NORTHEAST NEBRASKA

CITY           SKY/WX    TMP DP  RH WIND       PRES   REMARKS
NORFOLK        FOG       58  58 100 SE7       30.07S VSB 1/2
COLUMBUS *     CLOUDY    63  55  77 E7        30.09S
TEKAMAH        CLOUDY    67  63  87 S10       30.08F
$$

NEZ050>053-065>068-078-088>093-051700-
SOUTHEAST NEBRASKA

CITY           SKY/WX    TMP DP  RH WIND       PRES   REMARKS
LINCOLN        CLOUDY    67  60  78 SE7       30.08S
OMAHA EPPLEY   CLOUDY    67  60  78 S7        30.09S
FALLS CITY     CLOUDY    67  62  84 SE9       30.09S
$$

NEZ044-045-051>053-067-051700-
OMAHA AREA

CITY           SKY/WX    TMP DP  RH WIND       PRES   REMARKS
OMAHA EPPLEY   CLOUDY    67  60  78 S7        30.09S
OFFUTT AFB     MOSUNNY   68  61  77 SE10      30.08F
$$



USA.gov is the U.S. government's official web portal to all federal, state and local government web resources and services.